Torna al catalogo

STARLINK-35889

AttivoComunicazioniVLEO
NORAD 67189·PAYLOAD·🇺🇸 United States

Lanciato Dec 17, 2025 da Cape Canaveral Space Force Station

Loading…

Prossimi Passaggi (prossime 24 ore)

TLE

AggiornatoSource: CelesTrak SupGP

Epoca: Sep 14, 2026, 23:07 UTC

1 67189C 25303AC  26257.96368056 -.00000582  00000+0 -21088-4 0  2575
2 67189  43.0009 322.1480 0001603 265.8462 251.1358 15.27578910    13

Traccia STARLINK-35889 in tempo reale con AllMySat

Download on the App Store